Change the Weather History Date:

Friday, October 19, 2012

  Actual Average Record
Temperature  
Mean Temperature 53 °F -  
Max Temperature 60 °F - - ()
Min Temperature 46 °F - - ()
Degree Days  
Heating Degree Days 12    
Growing Degree Days 3 (Base 50)    
Moisture  
Dew Point 46 °F    
Average Humidity 79    
Maximum Humidity 94    
Minimum Humidity 63    
Precipitation  
Precipitation 0.00 in - - ()
Sea Level Pressure  
Sea Level Pressure 30.11 in    
Wind  
Wind Speed 4 mph ()    
Max Wind Speed 8 mph    
Max Gust Speed -    
T = Trace of Precipitation, MM = Missing Value Source: Averaged Metar Reports

Daily Weather History Graph

Daily Weather History Graph

Search for Another Location

Airport or City:

Trip Planner

Search our weather history database for the weather conditions in past years. The results will help you decide how hot, cold, wet, or windy it might be!

Date:

Astronomy

Oct. 19, 2012 Rise Set
Actual Time 7:22 AM CEST 5:57 PM CEST
Civil Twilight 6:50 AM CEST 6:29 PM CEST
Nautical Twilight 6:13 AM CEST 7:06 PM CEST
Astronomical Twilight 5:36 AM CEST 7:42 PM CEST
Moon 12:07 PM CEST (10/19) 8:57 PM CEST (10/19)
Length of Visible Light 11h 38m
Length of Day
10h 34m
Waxing Crescent, 21% of the Moon is Illuminated
Oct 19
Waxing Crescent
Oct 22
First Quarter
Oct 29
Full
Nov 7
Last Quarter
Nov 13
New

Hourly Weather History & Observations

Time (CEST) Temp. Dew Point Humidity Pressure Visibility Wind Dir Wind Speed Gust Speed Precip Events Conditions
12:00 AM 51.8 °F 46.4 °F 82% 30.12 in - ESE 6.9 mph - N/A   Clear
1:00 AM 51.8 °F 44.6 °F 76% 30.12 in - East 5.8 mph - N/A   Clear
2:00 AM 50.0 °F 44.6 °F 82% 30.12 in - East 5.8 mph - N/A   Clear
3:00 AM 50.0 °F 44.6 °F 82% 30.12 in - East 4.6 mph - N/A   Clear
4:00 AM 50.0 °F 42.8 °F 76% 30.12 in - ESE 3.5 mph - N/A   Clear
5:00 AM 48.2 °F 42.8 °F 82% 30.12 in - ESE 4.6 mph - N/A   Clear
6:00 AM 48.2 °F 42.8 °F 82% 30.12 in - East 4.6 mph - N/A   Clear
7:00 AM 46.4 °F 42.8 °F 87% 30.12 in - ENE 2.3 mph - N/A   Clear
8:00 AM 46.4 °F 42.8 °F 87% 30.12 in - Variable 2.3 mph - N/A   Clear
9:00 AM 48.2 °F 42.8 °F 82% 30.12 in - Variable 1.2 mph - N/A   Clear
10:00 AM 51.8 °F 44.6 °F 76% 30.15 in - Variable 2.3 mph - N/A   Clear
11:00 AM 53.6 °F 44.6 °F 72% 30.15 in - ESE 3.5 mph - N/A   Clear
12:00 PM 55.4 °F 48.2 °F 77% 30.15 in - SE 5.8 mph - N/A   Clear
1:00 PM 57.2 °F 48.2 °F 72% 30.12 in - ESE 8.1 mph - N/A   Clear
2:00 PM 60.8 °F 48.2 °F 63% 30.12 in - SE 5.8 mph - N/A   Clear
3:00 PM 59.0 °F 48.2 °F 67% 30.09 in - ESE 8.1 mph - N/A   Clear
4:00 PM 60.8 °F 48.2 °F 63% 30.09 in - ESE 5.8 mph - N/A   Clear
5:00 PM 57.2 °F 50.0 °F 77% 30.09 in - SSE 5.8 mph - N/A   Clear
6:00 PM 55.4 °F 48.2 °F 77% 30.09 in - SSE 3.5 mph - N/A   Clear
7:00 PM 53.6 °F 48.2 °F 82% 30.09 in - SE 3.5 mph - N/A   Clear
8:00 PM 53.6 °F 48.2 °F 82% 30.09 in - Variable 2.3 mph - N/A   Clear
9:00 PM 53.6 °F 48.2 °F 82% 30.12 in - East 3.5 mph - N/A   Clear
10:00 PM 50.0 °F 48.2 °F 94% 30.09 in - NE 4.6 mph - N/A   Clear
11:00 PM 50.0 °F 48.2 °F 94% 30.09 in - NNE 4.6 mph - N/A   Clear